,,,PA_Meas_PMT16A,,PR_Meas_QMR101_102,,RH_Meas_QMH101,,SR_Meas_QMS101,,TA_Meas_QMH101,,GenWind,,GenWind,
date,time,status,PA,status,PR,status,RH,status,SR,status,TA,status,DirAvg,status,SpdAvg,
2009-07-10, 00:00:05,VALID,999.684,VALID,0,VALID,72.1304,VALID,0,VALID,24.3666,VALID,132,VALID,2.5707,
2009-07-10, 00:01:05,VALID,999.691,VALID,0,VALID,71.8176,VALID,0,VALID,24.4056,VALID,131,VALID,2.59727,
2009-07-10, 00:02:05,VALID,999.673,VALID,0,VALID,72.0846,VALID,0,VALID,24.4056,VALID,130,VALID,1.76445,
2009-07-10, 00:03:05,VALID,999.678,VALID,0,VALID,72.2983,VALID,0,VALID,24.3647,VALID,123,VALID,1.36875,
2009-07-10, 00:04:05,VALID,999.63,VALID,0,VALID,71.5735,VALID,0,VALID,24.4056,VALID,125,VALID,2.07734,
2009-07-10, 00:05:05,VALID,999.634,VALID,0,VALID,71.6803,VALID,0,VALID,24.427,VALID,122,VALID,1.83359,
2009-07-10, 00:06:05,VALID,999.613,VALID,0,VALID,71.8863,VALID,0,VALID,24.4056,VALID,116,VALID,2.31016,
2009-07-10, 00:07:05,VALID,999.547,VALID,0,VALID,71.2835,VALID,0,VALID,24.4837,VALID,120,VALID,2.65195,
2009-07-10, 00:08:05,VALID,999.569,VALID,0,VALID,71.604,VALID,0,VALID,24.5032,VALID,116,VALID,2.13594,
2009-07-10, 00:09:05,VALID,999.54,VALID,0,VALID,71.5582,VALID,0,VALID,24.5032,VALID,129,VALID,2.35469,
2009-07-10, 00:10:05,VALID,999.516,VALID,0,VALID,71.4743,VALID,0,VALID,24.5032,VALID,125,VALID,2.36094,
2009-07-10, 00:11:05,VALID,999.512,VALID,0,VALID,71.398,VALID,0,VALID,24.48,VALID,123,VALID,2.27187,
2009-07-10, 00:12:05,VALID,999.498,VALID,0,VALID,71.7032,VALID,0,VALID,24.48,VALID,126,VALID,1.6207,
2009-07-10, 00:13:05,VALID,999.499,VALID,0,VALID,70.9631,VALID,0,VALID,24.4818,VALID,126,VALID,2.11484,
2009-07-10, 00:14:05,VALID,999.499,VALID,0,VALID,71.0775,VALID,0,VALID,24.5209,VALID,125,VALID,2.06406,
2009-07-10, 00:15:05,VALID,999.478,VALID,0,VALID,70.7037,VALID,0,VALID,24.5209,VALID,122,VALID,1.96055,
2009-07-10, 00:16:05,VALID,999.465,VALID,0,VALID,71.1233,VALID,0,VALID,24.5599,VALID,140,VALID,1.2082,
2009-07-10, 00:17:05,VALID,999.45,VALID,0,VALID,71.0699,VALID,0,VALID,24.5599,VALID,140,VALID,1.46406,
2009-07-10, 00:18:05,VALID,999.406,VALID,0,VALID,71.5124,VALID,0,VALID,24.5404,VALID,152,VALID,1.34375,
2009-07-10, 00:19:05,VALID,999.371,VALID,0,VALID,71.8252,VALID,0,VALID,24.5013,VALID,165,VALID,1.25859,
2009-07-10, 00:20:05,VALID,999.319,VALID,0,VALID,71.6345,VALID,0,VALID,24.4623,VALID,159,VALID,1.74141,
2009-07-10, 00:21:05,VALID,999.295,VALID,0,VALID,71.4361,VALID,0,VALID,24.4623,VALID,147,VALID,1.63437,
2009-07-10, 00:22:05,VALID,999.272,VALID,0,VALID,71.871,VALID,0,VALID,24.4818,VALID,158,VALID,1.39727,
2009-07-10, 00:23:05,VALID,999.236,VALID,0,VALID,71.7261,VALID,0,VALID,24.4428,VALID,177,VALID,1.18672,
2009-07-10, 00:24:05,VALID,999.254,VALID,0,VALID,71.8176,VALID,0,VALID,24.4623,VALID,179,VALID,1.05391,
2009-07-10, 00:25:05,VALID,999.314,VALID,0,VALID,71.4285,VALID,0,VALID,24.4623,VALID,175,VALID,1.24102,
2009-07-10, 00:26:05,VALID,999.287,VALID,0,VALID,70.9021,VALID,0,VALID,24.48,VALID,181,VALID,1.74258,
2009-07-10, 00:27:05,VALID,999.287,VALID,0,VALID,69.9026,VALID,0,VALID,24.5971,VALID,188,VALID,1.90898,
2009-07-10, 00:28:05,VALID,999.326,VALID,0,VALID,69.4906,VALID,0,VALID,24.6965,VALID,199,VALID,1.93047,
2009-07-10, 00:29:05,VALID,999.33,VALID,0,VALID,68.9718,VALID,0,VALID,24.7746,VALID,214,VALID,1.57344,
2009-07-10, 00:30:05,VALID,999.311,VALID,0,VALID,69.2617,VALID,0,VALID,24.8136,VALID,230,VALID,1.24141,
2009-07-10, 00:31:05,VALID,999.329,VALID,0,VALID,69.4829,VALID,0,VALID,24.8117,VALID,205,VALID,0.662891,
2009-07-10, 00:32:05,VALID,999.276,VALID,0,VALID,69.1549,VALID,0,VALID,24.7941,VALID,207,VALID,1.20781,
2009-07-10, 00:33:05,VALID,999.259,VALID,0,VALID,68.72,VALID,0,VALID,24.7727,VALID,204,VALID,1.67188,
2009-07-10, 00:34:05,VALID,999.224,VALID,0,VALID,69.0023,VALID,0,VALID,24.8117,VALID,200,VALID,1.61992,
2009-07-10, 00:35:05,VALID,999.213,VALID,0,VALID,68.5521,VALID,0,VALID,24.8527,VALID,200,VALID,2.01563,
2009-07-10, 00:36:05,VALID,999.2,VALID,0,VALID,68.0715,VALID,0,VALID,24.8917,VALID,194,VALID,1.67695,
2009-07-10, 00:37:05,VALID,999.164,VALID,0,VALID,68.4224,VALID,0.112286,VALID,24.9112,VALID,198,VALID,1.77344,
2009-07-10, 00:38:05,VALID,999.136,VALID,0,VALID,68.102,VALID,0,VALID,24.9112,VALID,184,VALID,2.48867,
2009-07-10, 00:39:05,VALID,999.115,VALID,0,VALID,68.1859,VALID,0,VALID,24.9679,VALID,186,VALID,2.54102,
2009-07-10, 00:40:05,VALID,999.132,VALID,0,VALID,68.5674,VALID,0,VALID,25.0088,VALID,179,VALID,2.4543,
2009-07-10, 00:41:05,VALID,999.112,VALID,0,VALID,68.6055,VALID,0,VALID,25.0088,VALID,181,VALID,2.3082,
2009-07-10, 00:42:05,VALID,999.12,VALID,0,VALID,69.2388,VALID,0,VALID,24.9698,VALID,208,VALID,2.10664,
2009-07-10, 00:43:05,VALID,999.118,VALID,0,VALID,69.5745,VALID,0,VALID,24.9308,VALID,206,VALID,2.52734,
2009-07-10, 00:44:05,VALID,999.095,VALID,0,VALID,70.3756,VALID,0,VALID,24.8508,VALID,193,VALID,2.40898,
2009-07-10, 00:45:05,VALID,999.077,VALID,0,VALID,70.6579,VALID,0,VALID,24.8722,VALID,188,VALID,2.59453,
2009-07-10, 00:46:05,VALID,999.057,VALID,0,VALID,70.6579,VALID,0,VALID,24.8313,VALID,183,VALID,2.69688,
2009-07-10, 00:47:05,VALID,999.032,VALID,0,VALID,71.3522,VALID,0,VALID,24.7922,VALID,185,VALID,2.90625,
2009-07-10, 00:48:05,VALID,999.04,VALID,0,VALID,71.5735,VALID,0,VALID,24.7727,VALID,178,VALID,2.69062,
2009-07-10, 00:49:04,VALID,998.993,VALID,0,VALID,71.8405,VALID,0,VALID,24.7941,VALID,190,VALID,2.73242,
2009-07-10, 00:50:04,VALID,998.973,VALID,0,VALID,72.1457,VALID,0,VALID,24.7356,VALID,178,VALID,3.12812,
2009-07-10, 00:51:04,VALID,998.945,VALID,0,VALID,71.5658,VALID,0,VALID,24.6946,VALID,198,VALID,1.81445,
2009-07-10, 00:52:04,VALID,998.956,VALID,0,VALID,72.5501,VALID,0,VALID,24.7356,VALID,183,VALID,2.8668,
2009-07-10, 00:53:04,VALID,998.906,VALID,0,VALID,72.7103,VALID,0,VALID,24.7356,VALID,175,VALID,2.73125,
2009-07-10, 00:54:04,VALID,998.845,VALID,0,VALID,72.3975,VALID,0,VALID,24.6965,VALID,204,VALID,1.23359,
2009-07-10, 00:55:04,VALID,998.822,VALID,0,VALID,71.5735,VALID,0,VALID,24.677,VALID,201,VALID,1.99141,
2009-07-10, 00:56:04,VALID,998.847,VALID,0,VALID,71.3217,VALID,0,VALID,24.716,VALID,196,VALID,1.86641,
2009-07-10, 00:57:04,VALID,998.812,VALID,0,VALID,71.8329,VALID,0,VALID,24.7551,VALID,202,VALID,1.08086,
2009-07-10, 00:58:04,VALID,998.787,VALID,0,VALID,70.5053,VALID,0,VALID,24.7941,VALID,197,VALID,1.92031,
2009-07-10, 00:59:04,VALID,998.799,VALID,0,VALID,70.6579,VALID,0,VALID,24.8722,VALID,186,VALID,1.18477,
2009-07-10, 01:00:04,VALID,998.753,VALID,0,VALID,70.5282,VALID,0,VALID,24.8917,VALID,182,VALID,1.09609,
2009-07-10, 01:01:04,VALID,998.746,VALID,0,VALID,71.2225,VALID,0,VALID,24.8917,VALID,164,VALID,1.0875,
2009-07-10, 01:02:04,VALID,998.718,VALID,0,VALID,71.3064,VALID,0,VALID,24.8722,VALID,162,VALID,0.989062,
2009-07-10, 01:03:04,VALID,998.692,VALID,0,VALID,71.665,VALID,0,VALID,24.8136,VALID,161,VALID,1.0668,
2009-07-10, 01:04:04,VALID,998.681,VALID,0,VALID,71.871,VALID,0,VALID,24.7746,VALID,153,VALID,0.880078,
2009-07-10, 01:05:04,VALID,998.678,VALID,0,VALID,72.1304,VALID,0,VALID,24.7356,VALID,142,VALID,0.972266,
2009-07-10, 01:06:04,VALID,998.663,VALID,0,VALID,72.4127,VALID,0.112286,VALID,24.6575,VALID,144,VALID,1.12461,
2009-07-10, 01:07:04,VALID,998.602,VALID,0,VALID,71.4209,VALID,0,VALID,24.5971,VALID,135,VALID,0.673437,
2009-07-10, 01:08:04,VALID,998.657,VALID,0,VALID,71.1386,VALID,0,VALID,24.638,VALID,152,VALID,1.25078,
2009-07-10, 01:09:04,VALID,998.621,VALID,0,VALID,71.4132,VALID,0,VALID,24.677,VALID,123,VALID,0.855859,
2009-07-10, 01:10:04,VALID,998.611,VALID,0,VALID,72.3212,VALID,0,VALID,24.677,VALID,55,VALID,0.337891,
2009-07-10, 01:11:04,VALID,998.612,VALID,0,VALID,72.3059,VALID,0,VALID,24.638,VALID,243,VALID,1.14883,
2009-07-10, 01:12:04,VALID,998.534,VALID,0,VALID,72.1228,VALID,0,VALID,24.6166,VALID,322,VALID,0.832812,
2009-07-10, 01:13:04,VALID,998.568,VALID,0,VALID,72.4204,VALID,0.112286,VALID,24.5971,VALID,322,VALID,0.618359,
2009-07-10, 01:14:04,VALID,998.574,VALID,0,VALID,71.665,VALID,0,VALID,24.5794,VALID,248,VALID,0.896094,
2009-07-10, 01:15:04,VALID,998.545,VALID,0,VALID,72.5653,VALID,0,VALID,24.6965,VALID,178,VALID,0.505469,
2009-07-10, 01:16:04,VALID,998.576,VALID,0,VALID,70.9173,VALID,0,VALID,24.6575,VALID,178,VALID,0.286719,
2009-07-10, 01:17:04,VALID,998.548,VALID,0,VALID,69.8415,VALID,0,VALID,24.677,VALID,159,VALID,0.330078,
2009-07-10, 01:18:04,VALID,998.498,VALID,0,VALID,70.6579,VALID,0,VALID,24.716,VALID,156,VALID,0.123828,
2009-07-10, 01:19:04,VALID,998.531,VALID,0,VALID,71.2149,VALID,0,VALID,24.6965,VALID,156,VALID,0,
2009-07-10, 01:20:04,VALID,998.517,VALID,0,VALID,71.3446,VALID,0.112286,VALID,24.6751,VALID,156,VALID,0.176172,
2009-07-10, 01:21:04,VALID,998.449,VALID,0,VALID,71.9549,VALID,0,VALID,24.6575,VALID,117,VALID,0.527344,
2009-07-10, 01:22:04,VALID,998.474,VALID,0,VALID,71.3904,VALID,0,VALID,24.6184,VALID,30,VALID,0.410156,
2009-07-10, 01:23:04,VALID,998.47,VALID,0,VALID,71.7032,VALID,0,VALID,24.5989,VALID,30,VALID,0.120703,
2009-07-10, 01:24:04,VALID,998.484,VALID,0,VALID,71.4895,VALID,0.112286,VALID,24.5385,VALID,30,VALID,0.177734,
2009-07-10, 01:25:04,VALID,998.471,VALID,0,VALID,72.1304,VALID,0,VALID,24.519,VALID,30,VALID,0.0175781,
2009-07-10, 01:26:04,VALID,998.477,VALID,0,VALID,73.2825,VALID,0,VALID,24.5013,VALID,30,VALID,0.317187,
2009-07-10, 01:27:04,VALID,998.452,VALID,0,VALID,73.5419,VALID,0,VALID,24.4233,VALID,59,VALID,1.0207,
2009-07-10, 01:28:04,VALID,998.458,VALID,0,VALID,77.2041,VALID,0,VALID,24.2458,VALID,38,VALID,2.39766,
2009-07-10, 01:29:04,VALID,998.464,VALID,0,VALID,79.7982,VALID,0.112286,VALID,23.9549,VALID,33,VALID,2.21484,
2009-07-10, 01:30:04,VALID,998.43,VALID,0,VALID,81.6369,VALID,0,VALID,23.6214,VALID,24,VALID,1.8543,
2009-07-10, 01:31:04,VALID,998.415,VALID,0,VALID,82.2244,VALID,0,VALID,23.389,VALID,33,VALID,2.02656,
2009-07-10, 01:32:04,VALID,998.411,VALID,0,VALID,82.3999,VALID,0,VALID,23.1921,VALID,54,VALID,2.14258,
2009-07-10, 01:33:04,VALID,998.444,VALID,0,VALID,82.7738,VALID,0,VALID,23.1336,VALID,52,VALID,1.78477,
2009-07-10, 01:34:04,VALID,998.426,VALID,0,VALID,82.9721,VALID,0,VALID,23.1159,VALID,43,VALID,1.62383,
2009-07-10, 01:35:04,VALID,998.486,VALID,0,VALID,83.3689,VALID,0.112286,VALID,23.0751,VALID,39,VALID,1.42031,
2009-07-10, 01:36:04,VALID,998.421,VALID,0,VALID,83.6588,VALID,0,VALID,23.0166,VALID,32,VALID,1.77578,
2009-07-10, 01:37:04,VALID,998.417,VALID,0,VALID,82.4686,VALID,0,VALID,22.9988,VALID,20,VALID,1.86563,
2009-07-10, 01:38:04,VALID,998.441,VALID,0,VALID,83.88,VALID,0,VALID,23.0378,VALID,45,VALID,1.29453,
2009-07-10, 01:39:04,VALID,998.439,VALID,0,VALID,84.1089,VALID,0,VALID,23.0166,VALID,41,VALID,1.13398,
2009-07-10, 01:40:04,VALID,998.434,VALID,0,VALID,84.3989,VALID,0.112286,VALID,22.9776,VALID,35,VALID,0.704297,
2009-07-10, 01:41:04,VALID,998.418,VALID,0,VALID,84.6506,VALID,0,VALID,22.9403,VALID,36,VALID,0.716016,
2009-07-10, 01:42:04,VALID,998.414,VALID,0,VALID,84.8032,VALID,0,VALID,22.8818,VALID,25,VALID,0.923828,
2009-07-10, 01:43:04,VALID,998.46,VALID,0,VALID,85.0855,VALID,0.112286,VALID,22.8215,VALID,25,VALID,0.463672,
2009-07-10, 01:44:04,VALID,998.462,VALID,0,VALID,85.2763,VALID,0,VALID,22.8037,VALID,104,VALID,0.54375,
2009-07-10, 01:45:04,VALID,998.49,VALID,0,VALID,85.3297,VALID,0.112286,VALID,22.7647,VALID,128,VALID,0.414844,
2009-07-10, 01:46:04,VALID,998.474,VALID,0,VALID,85.4365,VALID,0,VALID,22.7435,VALID,128,VALID,0.0597656,
2009-07-10, 01:47:04,VALID,998.455,VALID,0,VALID,85.3449,VALID,0,VALID,22.7842,VALID,128,VALID,0.105078,
2009-07-10, 01:48:04,VALID,998.419,VALID,0,VALID,85.1008,VALID,0,VALID,22.7435,VALID,127,VALID,0.383203,
2009-07-10, 01:49:04,VALID,998.452,VALID,0,VALID,84.9558,VALID,0.112286,VALID,22.763,VALID,67,VALID,0.877344,
2009-07-10, 01:50:04,VALID,998.439,VALID,0,VALID,84.3378,VALID,0,VALID,22.8037,VALID,70,VALID,1.06094,
2009-07-10, 01:51:04,VALID,998.42,VALID,0,VALID,84.0784,VALID,0.112286,VALID,22.8215,VALID,78,VALID,0.895703,
2009-07-10, 01:52:04,VALID,998.408,VALID,0,VALID,83.5977,VALID,0.112286,VALID,22.88,VALID,78,VALID,0.996484,
2009-07-10, 01:53:04,VALID,998.413,VALID,0,VALID,83.7198,VALID,0.112286,VALID,22.9581,VALID,64,VALID,1.25664,
2009-07-10, 01:54:04,VALID,998.414,VALID,0,VALID,84.1013,VALID,0.112286,VALID,22.9971,VALID,60,VALID,1.57852,
2009-07-10, 01:55:04,VALID,998.426,VALID,0,VALID,84.1166,VALID,0.112286,VALID,23.0166,VALID,59,VALID,1.6625,
2009-07-10, 01:56:04,VALID,998.41,VALID,0,VALID,84.0784,VALID,0,VALID,23.0378,VALID,63,VALID,1.64688,
2009-07-10, 01:57:04,VALID,998.435,VALID,0,VALID,84.582,VALID,0,VALID,23.0183,VALID,73,VALID,1.48633,
2009-07-10, 01:58:04,VALID,998.404,VALID,0,VALID,84.7956,VALID,0,VALID,23.0201,VALID,74,VALID,1.43906,
2009-07-10, 01:59:04,VALID,998.375,VALID,0,VALID,84.7269,VALID,0,VALID,22.9793,VALID,73,VALID,1.08711,
2009-07-10, 02:00:04,VALID,998.416,VALID,0,VALID,84.1089,VALID,0,VALID,22.9403,VALID,96,VALID,1.10742,
2009-07-10, 02:01:04,VALID,998.392,VALID,0,VALID,84.5591,VALID,0,VALID,22.9403,VALID,114,VALID,1.06875,
2009-07-10, 02:02:04,VALID,998.393,VALID,0,VALID,84.9863,VALID,0,VALID,22.9403,VALID,129,VALID,1.05,
2009-07-10, 02:03:04,VALID,998.417,VALID,0,VALID,84.643,VALID,0,VALID,22.9403,VALID,107,VALID,0.871094,
2009-07-10, 02:04:04,VALID,998.413,VALID,0,VALID,84.4217,VALID,0,VALID,22.9208,VALID,86,VALID,0.935156,
2009-07-10, 02:05:04,VALID,998.447,VALID,0,VALID,83.9334,VALID,0,VALID,22.9598,VALID,81,VALID,0.725391,
2009-07-10, 02:06:04,VALID,998.44,VALID,0,VALID,84.0174,VALID,0,VALID,22.9598,VALID,81,VALID,0.338281,
2009-07-10, 02:07:04,VALID,998.486,VALID,0,VALID,84.025,VALID,0,VALID,22.9793,VALID,81,VALID,0.525,
2009-07-10, 02:08:04,VALID,998.456,VALID,0,VALID,83.2239,VALID,0,VALID,23.0006,VALID,81,VALID,1.06562,
2009-07-10, 02:09:04,VALID,998.478,VALID,0,VALID,82.6517,VALID,0,VALID,23.0201,VALID,79,VALID,0.759375,
2009-07-10, 02:10:04,VALID,998.497,VALID,0,VALID,82.4457,VALID,0,VALID,23.0573,VALID,61,VALID,0.676562,
2009-07-10, 02:11:04,VALID,998.516,VALID,0,VALID,82.789,VALID,0,VALID,23.0964,VALID,61,VALID,0.697656,
2009-07-10, 02:12:04,VALID,998.516,VALID,0,VALID,82.4304,VALID,0,VALID,23.1354,VALID,61,VALID,0.582031,
2009-07-10, 02:13:04,VALID,998.554,VALID,0,VALID,82.8806,VALID,0,VALID,23.1549,VALID,72,VALID,0.70625,
2009-07-10, 02:14:04,VALID,998.58,VALID,0,VALID,83.4223,VALID,0,VALID,23.1354,VALID,73,VALID,0.675781,
2009-07-10, 02:15:04,VALID,998.602,VALID,0,VALID,82.9569,VALID,0,VALID,23.1159,VALID,73,VALID,0.722266,
2009-07-10, 02:16:04,VALID,998.622,VALID,0,VALID,83.0103,VALID,0,VALID,23.0964,VALID,62,VALID,0.538672,
2009-07-10, 02:17:04,VALID,998.636,VALID,0,VALID,83.3994,VALID,0,VALID,23.0964,VALID,62,VALID,0.202344,
2009-07-10, 02:18:04,VALID,998.677,VALID,0,VALID,83.8037,VALID,0,VALID,23.0769,VALID,64,VALID,0.342578,
2009-07-10, 02:19:04,VALID,998.681,VALID,0,VALID,82.9798,VALID,0,VALID,23.0378,VALID,94,VALID,1.64063,
2009-07-10, 02:20:04,VALID,998.667,VALID,0,VALID,83.4757,VALID,0,VALID,23.0769,VALID,92,VALID,1.46289,
2009-07-10, 02:21:04,VALID,998.66,VALID,0,VALID,83.2392,VALID,0,VALID,23.0964,VALID,75,VALID,1.4707,
2009-07-10, 02:22:04,VALID,998.663,VALID,0,VALID,83.5977,VALID,0,VALID,23.0964,VALID,69,VALID,1.23516,
2009-07-10, 02:23:04,VALID,998.647,VALID,0,VALID,83.1934,VALID,0,VALID,23.1159,VALID,67,VALID,1.47148,
2009-07-10, 02:24:04,VALID,998.653,VALID,0,VALID,83.4223,VALID,0,VALID,23.1159,VALID,58,VALID,1.43672,
2009-07-10, 02:25:04,VALID,998.685,VALID,0,VALID,84.2844,VALID,0,VALID,23.1159,VALID,72,VALID,1.66094,
2009-07-10, 02:26:04,VALID,998.671,VALID,0,VALID,84.8032,VALID,0,VALID,23.0981,VALID,73,VALID,1.87188,
2009-07-10, 02:27:04,VALID,998.617,VALID,0,VALID,85.6806,VALID,0,VALID,23.0591,VALID,68,VALID,1.64648,
2009-07-10, 02:28:04,VALID,998.637,VALID,0,VALID,85.2,VALID,0,VALID,23.0006,VALID,69,VALID,1.76016,
2009-07-10, 02:29:04,VALID,998.656,VALID,0,VALID,85.5738,VALID,0,VALID,22.9615,VALID,75,VALID,0.926562,
2009-07-10, 02:30:04,VALID,998.685,VALID,0,VALID,85.6501,VALID,0,VALID,22.9013,VALID,91,VALID,0.913672,
2009-07-10, 02:31:04,VALID,998.638,VALID,0,VALID,85.9019,VALID,0,VALID,22.903,VALID,90,VALID,0.892969,
2009-07-10, 02:32:04,VALID,998.627,VALID,0,VALID,86.0316,VALID,0,VALID,22.864,VALID,92,VALID,0.832422,
2009-07-10, 02:33:04,VALID,998.628,VALID,0,VALID,86.2757,VALID,0,VALID,22.8232,VALID,92,VALID,0.829297,
2009-07-10, 02:34:04,VALID,998.576,VALID,0,VALID,86.4817,VALID,0,VALID,22.7842,VALID,91,VALID,0.813672,
2009-07-10, 02:35:04,VALID,998.567,VALID,0,VALID,86.352,VALID,0,VALID,22.7842,VALID,94,VALID,0.367188,
2009-07-10, 02:36:04,VALID,998.553,VALID,0,VALID,86.2986,VALID,0,VALID,22.8055,VALID,90,VALID,0.20625,
2009-07-10, 02:37:04,VALID,998.584,VALID,0,VALID,86.4589,VALID,0,VALID,22.7647,VALID,95,VALID,0.346484,
2009-07-10, 02:38:04,VALID,998.553,VALID,0,VALID,85.8866,VALID,0,VALID,22.7647,VALID,106,VALID,0.979688,
2009-07-10, 02:39:04,VALID,998.536,VALID,0,VALID,85.9248,VALID,0,VALID,22.786,VALID,105,VALID,1.02344,
2009-07-10, 02:40:04,VALID,998.538,VALID,0,VALID,85.9706,VALID,0,VALID,22.8055,VALID,92,VALID,0.88125,
2009-07-10, 02:41:04,VALID,998.558,VALID,0,VALID,86.4665,VALID,0,VALID,22.825,VALID,110,VALID,0.951563,
2009-07-10, 02:42:04,VALID,998.578,VALID,0,VALID,86.703,VALID,0,VALID,22.8037,VALID,154,VALID,0.721094,
2009-07-10, 02:43:04,VALID,998.574,VALID,0,VALID,86.3215,VALID,0,VALID,22.825,VALID,87,VALID,0.980859,
2009-07-10, 02:44:04,VALID,998.589,VALID,0,VALID,85.8027,VALID,0,VALID,22.864,VALID,104,VALID,0.598047,
2009-07-10, 02:45:04,VALID,998.582,VALID,0,VALID,85.612,VALID,0,VALID,22.9013,VALID,158,VALID,0.539844,
2009-07-10, 02:46:04,VALID,998.604,VALID,0,VALID,85.6806,VALID,0,VALID,22.9615,VALID,171,VALID,0.499609,
2009-07-10, 02:47:04,VALID,998.653,VALID,0,VALID,85.3755,VALID,0,VALID,22.9403,VALID,164,VALID,0.137891,
2009-07-10, 02:48:04,VALID,998.663,VALID,0,VALID,85.1466,VALID,0,VALID,22.9598,VALID,164,VALID,0.216406,
2009-07-10, 02:49:04,VALID,998.658,VALID,0,VALID,84.6125,VALID,0,VALID,23.0006,VALID,164,VALID,0.253516,
2009-07-10, 02:50:04,VALID,998.651,VALID,0,VALID,85.0626,VALID,0,VALID,23.0006,VALID,164,VALID,0.201172,
2009-07-10, 02:51:04,VALID,998.663,VALID,0,VALID,84.6506,VALID,0,VALID,22.9988,VALID,132,VALID,0.548828,
2009-07-10, 02:52:04,VALID,998.665,VALID,0,VALID,84.5972,VALID,0,VALID,23.0183,VALID,118,VALID,0.849219,
2009-07-10, 02:53:04,VALID,998.686,VALID,0,VALID,84.6125,VALID,0,VALID,23.0591,VALID,116,VALID,1.04609,
2009-07-10, 02:54:04,VALID,998.664,VALID,0,VALID,84.5591,VALID,0,VALID,23.0786,VALID,108,VALID,1.11133,
2009-07-10, 02:55:04,VALID,998.675,VALID,0,VALID,84.6812,VALID,0,VALID,23.0769,VALID,117,VALID,1.10469,
2009-07-10, 02:56:04,VALID,998.677,VALID,0,VALID,84.5438,VALID,0,VALID,23.0981,VALID,121,VALID,0.579297,
2009-07-10, 02:57:04,VALID,998.68,VALID,0,VALID,84.3302,VALID,0,VALID,23.0786,VALID,129,VALID,0.376172,
2009-07-10, 02:58:04,VALID,998.664,VALID,0,VALID,83.7503,VALID,0,VALID,23.0786,VALID,133,VALID,1.07344,
2009-07-10, 02:59:04,VALID,998.674,VALID,0,VALID,83.7274,VALID,0,VALID,23.0964,VALID,110,VALID,0.979297,
2009-07-10, 03:00:04,VALID,998.678,VALID,0,VALID,83.3917,VALID,0,VALID,23.1159,VALID,121,VALID,1.12422,
2009-07-10, 03:01:04,VALID,998.696,VALID,0,VALID,83.4986,VALID,0,VALID,23.1159,VALID,117,VALID,0.926172,
2009-07-10, 03:02:04,VALID,998.667,VALID,0,VALID,83.468,VALID,0,VALID,23.1354,VALID,116,VALID,0.647656,
2009-07-10, 03:03:04,VALID,998.719,VALID,0,VALID,83.6435,VALID,0,VALID,23.0964,VALID,91,VALID,0.610156,
2009-07-10, 03:04:04,VALID,998.696,VALID,0,VALID,83.0484,VALID,0,VALID,23.0981,VALID,93,VALID,0.845312,
2009-07-10, 03:05:04,VALID,998.73,VALID,0,VALID,83.0408,VALID,0,VALID,23.0769,VALID,106,VALID,0.612891,
2009-07-10, 03:06:04,VALID,998.772,VALID,0,VALID,83.2086,VALID,0,VALID,23.0964,VALID,107,VALID,0.364844,
2009-07-10, 03:07:04,VALID,998.8,VALID,0,VALID,83.1705,VALID,0,VALID,23.0981,VALID,119,VALID,0.367188,
2009-07-10, 03:08:04,VALID,998.757,VALID,0,VALID,83.0179,VALID,0,VALID,23.0573,VALID,119,VALID,0.110937,
2009-07-10, 03:09:04,VALID,998.761,VALID,0,VALID,83.1781,VALID,0,VALID,23.0786,VALID,119,VALID,0.304297,
2009-07-10, 03:10:04,VALID,998.776,VALID,0,VALID,82.8653,VALID,0,VALID,23.0573,VALID,122,VALID,0.708203,
2009-07-10, 03:11:04,VALID,998.757,VALID,0,VALID,82.6059,VALID,0,VALID,23.1371,VALID,135,VALID,0.832031,
2009-07-10, 03:12:04,VALID,998.726,VALID,0,VALID,82.5525,VALID,0,VALID,23.1566,VALID,127,VALID,0.749219,
2009-07-10, 03:13:04,VALID,998.759,VALID,0,VALID,81.9345,VALID,0,VALID,23.1957,VALID,152,VALID,0.844531,
2009-07-10, 03:14:04,VALID,998.707,VALID,0,VALID,81.2478,VALID,0,VALID,23.2524,VALID,173,VALID,1.22109,
2009-07-10, 03:15:04,VALID,998.746,VALID,0,VALID,80.3552,VALID,0,VALID,23.3518,VALID,160,VALID,1.00586,
2009-07-10, 03:16:04,VALID,998.72,VALID,0,VALID,80.584,VALID,0,VALID,23.4298,VALID,139,VALID,1.18242,
2009-07-10, 03:17:04,VALID,998.668,VALID,0,VALID,80.584,VALID,0,VALID,23.428,VALID,140,VALID,0.901563,
2009-07-10, 03:18:04,VALID,998.675,VALID,0,VALID,80.7443,VALID,0,VALID,23.4493,VALID,130,VALID,0.912891,
2009-07-10, 03:19:04,VALID,998.664,VALID,0,VALID,81.1029,VALID,0,VALID,23.4298,VALID,132,VALID,0.865234,
2009-07-10, 03:20:04,VALID,998.672,VALID,0,VALID,81.1944,VALID,0,VALID,23.3695,VALID,133,VALID,1.01719,
2009-07-10, 03:21:04,VALID,998.693,VALID,0,VALID,81.3852,VALID,0,VALID,23.3713,VALID,134,VALID,1.18047,
2009-07-10, 03:22:04,VALID,998.676,VALID,0,VALID,81.5225,VALID,0,VALID,23.3518,VALID,127,VALID,1.13086,
2009-07-10, 03:23:04,VALID,998.696,VALID,0,VALID,81.7361,VALID,0,VALID,23.3323,VALID,120,VALID,1.11797,
2009-07-10, 03:24:04,VALID,998.686,VALID,0,VALID,81.8429,VALID,0,VALID,23.2932,VALID,123,VALID,0.944922,
2009-07-10, 03:25:04,VALID,998.722,VALID,0,VALID,82.1863,VALID,0,VALID,23.2542,VALID,122,VALID,0.899219,
2009-07-10, 03:26:04,VALID,998.762,VALID,0,VALID,82.3389,VALID,0,VALID,23.1939,VALID,123,VALID,0.991406,
2009-07-10, 03:27:04,VALID,998.734,VALID,0,VALID,82.5601,VALID,0,VALID,23.1762,VALID,130,VALID,0.663672,
2009-07-10, 03:28:04,VALID,998.764,VALID,0,VALID,82.6517,VALID,0,VALID,23.1371,VALID,108,VALID,0.586328,
2009-07-10, 03:29:04,VALID,998.762,VALID,0,VALID,82.3923,VALID,0,VALID,23.1176,VALID,122,VALID,0.774609,
2009-07-10, 03:30:04,VALID,998.776,VALID,0,VALID,82.3846,VALID,0,VALID,23.0981,VALID,123,VALID,0.351563,
2009-07-10, 03:31:04,VALID,998.781,VALID,0,VALID,82.522,VALID,0,VALID,23.0769,VALID,123,VALID,0.176953,
2009-07-10, 03:32:04,VALID,998.819,VALID,0,VALID,82.4609,VALID,0,VALID,23.0591,VALID,124,VALID,0.345313,
2009-07-10, 03:33:04,VALID,998.817,VALID,0,VALID,82.4304,VALID,0,VALID,23.0396,VALID,125,VALID,0,
2009-07-10, 03:34:04,VALID,998.836,VALID,0,VALID,82.9798,VALID,0,VALID,23.0006,VALID,125,VALID,0.200391,
2009-07-10, 03:35:04,VALID,998.837,VALID,0,VALID,83.6283,VALID,0,VALID,22.9811,VALID,125,VALID,0.402344,
2009-07-10, 03:36:04,VALID,998.845,VALID,0,VALID,84.025,VALID,0,VALID,22.9225,VALID,32,VALID,0.571484,
2009-07-10, 03:37:04,VALID,998.863,VALID,0,VALID,84.2539,VALID,0,VALID,22.864,VALID,32,VALID,0.336719,
2009-07-10, 03:38:04,VALID,998.862,VALID,0,VALID,84.2997,VALID,0,VALID,22.7842,VALID,32,VALID,0.311719,
2009-07-10, 03:39:04,VALID,998.89,VALID,0,VALID,84.3683,VALID,0,VALID,22.8055,VALID,32,VALID,0.164453,
2009-07-10, 03:40:04,VALID,998.862,VALID,0,VALID,84.0326,VALID,0,VALID,22.786,VALID,38,VALID,0.360156,
2009-07-10, 03:41:04,VALID,998.904,VALID,0,VALID,84.6049,VALID,0,VALID,22.7664,VALID,42,VALID,0.332812,
2009-07-10, 03:42:04,VALID,998.86,VALID,0,VALID,84.3531,VALID,0,VALID,22.7257,VALID,49,VALID,0.535547,
2009-07-10, 03:43:04,VALID,998.876,VALID,0,VALID,83.9792,VALID,0,VALID,22.7664,VALID,106,VALID,0.614844,
2009-07-10, 03:44:04,VALID,998.893,VALID,0,VALID,83.4299,VALID,0,VALID,22.7647,VALID,139,VALID,1.15625,
2009-07-10, 03:45:04,VALID,998.896,VALID,0,VALID,82.6898,VALID,0,VALID,22.903,VALID,139,VALID,1.17031,